Simultaneous Nadir Overpasses (SNOs) Predictions

Prediction of SNOs between GOES-15 and METOP-A Satellite Orbit:

Table of predicted SNOs for the next 14.0 days since TLE Epoch: 1/20/2017
Index Date Time (GOES-15) GOES-15 Lat,Lon METOP-A Lat,Lon Distance(km) Time Diff (sec)
1 01/20/2017 18:48:12 0.00,-135.09 0.89,-139.20 467.06 80
2 01/21/2017 18:24:52 -0.00,-135.12 -0.22,-134.20 105.08 80
3 01/23/2017 06:46:31 -0.00,-135.19 -0.82,-138.79 410.45 80
4 01/24/2017 06:23:12 0.00,-135.22 0.29,-133.80 161.23 80
5 01/25/2017 18:44:44 0.01,-135.22 0.69,-138.36 357.92 80
6 01/26/2017 18:21:25 0.00,-135.24 -0.42,-133.37 213.47 80
7 01/28/2017 06:43:04 -0.01,-135.30 -0.63,-137.96 303.17 80
8 01/29/2017 06:19:45 -0.01,-135.32 0.49,-132.96 267.88 80
9 01/30/2017 18:41:17 0.02,-135.31 0.49,-137.53 252.35 80
10 01/31/2017 18:17:57 0.02,-135.33 -0.63,-132.54 318.38 80
11 02/02/2017 06:39:37 -0.03,-135.38 -0.42,-137.13 199.48 80
12 02/03/2017 06:16:17 -0.02,-135.39 0.70,-132.13 370.69 80




NCC Satellite Simultaneous Nadir Overpasses (SNOs) Prediction Service
